QPF
0.00 0.00 0.00 0.00 0.00 0.00 0.00 0.00 0.00 0.00 0.00 0.00 0.00 0.00 0.00 0.00 0.00 0.00 0.00 0.00 0.00 0.00 0.00 0.00 0.00 0.00 0.00 0.00 0.00 0.00 0.00 0.00 0.00 0.00 0.00 0.00 0.00 0.00 0.00 0.00 0.00 0.00 0.00 0.00 0.00
0.00 0.00 0.00 0.00 0.00 0.00 0.00 0.00 0.00 0.00 0.00 0.00 0.00 0.00 0.00 0.00 0.00 0.00 0.00 0.00 0.00 0.00 0.00 0.00 0.00 0.00 0.00 0.00 0.00 0.00 0.00 0.00 0.00 0.00 0.00 0.00 0.00 0.00 0.00 0.00 0.00 0.00 0.00 0.00 0.00
0.00 0.00 0.00 0.00 0.00 0.00 0.00 0.00 0.00 0.00 0.00 0.00 0.00 0.00 0.00 0.00 0.00 0.00 0.00 0.00 0.00 0.00 0.00 0.00 0.00 0.00 0.00 0.00 0.00 0.00 0.00 0.00 0.00 0.00 0.00 0.00 0.00 0.00 0.00 0.00 0.00 0.00 0.00 0.00 0.00
0.00 0.00 0.00 0.00 0.00 0.00 0.00 0.00 0.00 0.00 0.00 0.00 0.00 0.00 0.00 0.00 0.00 0.00 0.00 0.00 0.00 0.00 0.00 0.00 0.00 0.00 0.00 0.00 0.00 0.00 0.00 0.00 0.00 0.00 0.00 0.00 0.00 0.00 0.00 0.00 0.00 0.00 0.00 0.00 0.00
0.00 0.00 0.00 0.00 0.00 0.00 0.00 0.00 0.00 0.00 0.00 0.00 0.00 0.00 0.00 0.00 0.00 0.00 0.00 0.00 0.00 0.00 0.00 0.00 0.00 0.00 0.00 0.00 0.00 0.00 0.00 0.00 0.00 0.00 0.00 0.00 0.00 0.00 0.00 0.00 0.00 0.00 0.00 0.00 0.00
0.00 0.00 0.00 0.00 0.00 0.00 0.00 0.00 0.00 0.00 0.00 0.00 0.00 0.00 0.00 0.00 0.00 0.00 0.00 0.00 0.00 0.00 0.00 0.00 0.00 0.00 0.00 0.00 0.00 0.00 0.00 0.00 0.00 0.00 0.00 0.00 0.00 0.00 0.00 0.00 0.00 0.00 0.00 0.00 0.00
0.00 0.00 0.00 0.00 0.00 0.00 0.00 0.00 0.00 0.00 0.00 0.00 0.00 0.00 0.00 0.00 0.00 0.00 0.00 0.00 0.00 0.00 0.00 0.00 0.00 0.00 0.00 0.00 0.00 0.00 0.00 0.00 0.00 0.00 0.00 0.00 0.00 0.00 0.00 0.00 0.00 0.00 0.00 0.00 0.00
0.00 0.00 0.00 0.00 0.00 0.00 0.00 0.00 0.00 0.00 0.00 0.00 0.00 0.00 0.00 0.00 0.00 0.00 0.00 0.00 0.00 0.00 0.00 0.00 0.00 0.00 0.00 0.00 0.00 0.00 0.00 0.00 0.00 0.00 0.00 0.00 0.00 0.00 0.00 0.00 0.00 0.00 0.00 0.00 0.00
0.00 0.00 0.00 0.00 0.00 0.00 0.00 0.00 0.00 0.00 0.00 0.00 0.00 0.00 0.00 0.00 0.00 0.00 0.00 0.00 0.00 0.00 0.00 0.00 0.00 0.00 0.00 0.00 0.00 0.00 0.00 0.00 0.00 0.00 0.00 0.00 0.00 0.00 0.00 0.00 0.00 0.00 0.00 0.00 0.00
0.00 0.00 0.00 0.00 0.00 0.00 0.00 0.00 0.00 0.00 0.00 0.00 0.00 0.00 0.00 0.00 0.00 0.00 0.00 0.00 0.00 0.00 0.00 0.00 0.00 0.00 0.00 0.00 0.01 0.00 0.00 0.00 0.00 0.00 0.00 0.00 0.00 0.00 0.00 0.00 0.00 0.00 0.00 0.00 0.00
0.00 0.00 0.00 0.00 0.00 0.00 0.00 0.00 0.00 0.00 0.00 0.00 0.00 0.00 0.00 0.00 0.00 0.00 0.00 0.00 0.00 0.01 0.00 0.00 0.00 0.00 0.00 0.00 0.00 0.00 0.00 0.00 0.00 0.00 0.00 0.00 0.00 0.00 0.00 0.00 0.00 0.00 0.00 0.00 0.00
0.00 0.00 0.00 0.00 0.00 0.00 0.00 0.00 0.00 0.00 0.00 0.00 0.00 0.00 0.00 0.00 0.00 0.00 0.00 0.00 0.00 0.00 0.00 0.01 0.00 0.00 0.05 0.01 0.00 0.00 0.00 0.00 0.00 0.00 0.00 0.00 0.00 0.00 0.00 0.00 0.00 0.00 0.00 0.00 0.00
0.00 0.00 0.00 0.00 0.00 0.00 0.00 0.00 0.00 0.00 0.00 0.00 0.00 0.00 0.00 0.00 0.00 0.00 0.00 0.00 0.00 0.00 0.01 0.01 0.00 0.01 0.03 0.02 0.00 0.00 0.00 0.00 0.00 0.00 0.00 0.00 0.00 0.00 0.00 0.00 0.00 0.00 0.00 0.00 0.00
0.00 0.00 0.00 0.00 0.00 0.00 0.00 0.00 0.00 0.00 0.00 0.00 0.00 0.00 0.00 0.00 0.00 0.00 0.00 0.00 0.00 0.00 0.00 0.00 0.00 0.03 0.01 0.00 0.00 0.00 0.00 0.00 0.00 0.00 0.00 0.00 0.00 0.00 0.00 0.00 0.00 0.00 0.00 0.00 0.00
0.00 0.00 0.00 0.00 0.00 0.00 0.00 0.00 0.00 0.00 0.00 0.00 0.00 0.00 0.00 0.00 0.00 0.00 0.00 0.00 0.00 0.00 0.00 0.00 0.00 0.03 0.01 0.00 0.00 0.00 0.00 0.00 0.00 0.00 0.00 0.00 0.00 0.00 0.00 0.00 0.00 0.00 0.00 0.00 0.00
0.00 0.00 0.00 0.00 0.00 0.00 0.00 0.00 0.00 0.00 0.00 0.00 0.00 0.00 0.00 0.00 0.00 0.00 0.00 0.00 0.00 0.00 0.00 0.01 0.00 0.00 0.01 0.01 0.00 0.00 0.00 0.00 0.00 0.00 0.00 0.00 0.00 0.00 0.00 0.00 0.00 0.00 0.00 0.00 0.00
0.00 0.00 0.00 0.00 0.00 0.00 0.00 0.00 0.00 0.00 0.00 0.00 0.00 0.00 0.00 0.00 0.00 0.00 0.00 0.00 0.00 0.00 0.00 0.00 0.00 0.00 0.00 0.01 0.01 0.00 0.00 0.00 0.00 0.00 0.00 0.00 0.00 0.00 0.00 0.00 0.00 0.00 0.00 0.00 0.00
0.00 0.00 0.00 0.00 0.00 0.00 0.00 0.00 0.00 0.00 0.00 0.00 0.00 0.00 0.00 0.00 0.00 0.00 0.00 0.00 0.00 0.00 0.00 0.00 0.00 0.00 0.00 0.01 0.01 0.00 0.00 0.00 0.00 0.00 0.00 0.00 0.00 0.00 0.00 0.00 0.00 0.00 0.00 0.00 0.00
0.00 0.00 0.00 0.00 0.00 0.00 0.00 0.00 0.00 0.00 0.00 0.00 0.00 0.00 0.00 0.00 0.00 0.00 0.00 0.00 0.00 0.00 0.00 0.00 0.00 0.00 0.00 0.00 0.00 0.00 0.00 0.00 0.00 0.00 0.00 0.00 0.00 0.00 0.00 0.00 0.00 0.00 0.00 0.00 0.00
0.00 0.00 0.00 0.00 0.00 0.00 0.00 0.00 0.00 0.00 0.00 0.00 0.00 0.00 0.00 0.00 0.00 0.00 0.00 0.00 0.00 0.00 0.00 0.00 0.00 0.00 0.00 0.00 0.00 0.00 0.00 0.00 0.00 0.00 0.00 0.00 0.00 0.00 0.00 0.00 0.00 0.00 0.00 0.00 0.00
0.00 0.00 0.00 0.00 0.00 0.00 0.00 0.00 0.00 0.00 0.00 0.00 0.00 0.00 0.00 0.00 0.00 0.00 0.00 0.00 0.00 0.00 0.00 0.00 0.00 0.00 0.00 0.00 0.00 0.00 0.00 0.00 0.00 0.00 0.00 0.00 0.00 0.00 0.00 0.00 0.00 0.00 0.00 0.00 0.00
0.00 0.00 0.00 0.00 0.00 0.00 0.00 0.00 0.00 0.00 0.00 0.00 0.00 0.00 0.00 0.00 0.00 0.00 0.00 0.00 0.00 0.00 0.00 0.00 0.00 0.00 0.00 0.00 0.00 0.00 0.00 0.00 0.00 0.00 0.00 0.00 0.00 0.00 0.00 0.00 0.00 0.00 0.00 0.00 0.00
0.00 0.00 0.00 0.00 0.00 0.00 0.00 0.00 0.00 0.00 0.00 0.00 0.00 0.00 0.00 0.00 0.00 0.00 0.00 0.00 0.00 0.00 0.00 0.00 0.00 0.00 0.00 0.00 0.00 0.00 0.00 0.00 0.00 0.00 0.00 0.00 0.00 0.00 0.00 0.00 0.00 0.00 0.00 0.00 0.00
0.00 0.00 0.00 0.00 0.00 0.00 0.00 0.00 0.00 0.00 0.00 0.00 0.00 0.00 0.00 0.00 0.00 0.00 0.00 0.00 0.00 0.00 0.00 0.00 0.00 0.00 0.00 0.00 0.00 0.00 0.00 0.00 0.00 0.00 0.00 0.00 0.00 0.00 0.00 0.00 0.00 0.00 0.00 0.00 0.00
0.00 0.00 0.00 0.00 0.00 0.00 0.00 0.00 0.00 0.00 0.00 0.00 0.00 0.00 0.00 0.00 0.00 0.00 0.00 0.00 0.00 0.00 0.00 0.00 0.00 0.00 0.00 0.00 0.00 0.00 0.00 0.00 0.00 0.00 0.00 0.00 0.00 0.00 0.00 0.00 0.00 0.00 0.00 0.00 0.00
0.00 0.00 0.00 0.00 0.00 0.00 0.00 0.00 0.00 0.00 0.00 0.00 0.00 0.00 0.00 0.00 0.00 0.00 0.00 0.00 0.00 0.00 0.00 0.00 0.00 0.00 0.00 0.00 0.00 0.00 0.00 0.00 0.00 0.00 0.00 0.00 0.00 0.00 0.00 0.00 0.00 0.00 0.00 0.00 0.00
0.00 0.00 0.00 0.00 0.00 0.00 0.00 0.00 0.00 0.00 0.00 0.00 0.00 0.00 0.00 0.00 0.00 0.00 0.00 0.00 0.00 0.00 0.00 0.00 0.00 0.00 0.00 0.00 0.00 0.00 0.00 0.00 0.00 0.00 0.00 0.00 0.00 0.00 0.00 0.00 0.00 0.00 0.00 0.00 0.00
MSLP
1016.22 1015.76 1015.38 1014.99 1014.67 1014.23 1013.79 1013.46 1013.04 1012.62 1012.28 1011.90 1011.45 1011.13 1010.81 1010.44 1009.51 1008.55 1006.08 1004.53 1004.37 1004.48 1004.83 1003.31 1003.12 1002.23 1002.55 1001.58 1001.55 1001.90 1001.47 998.29 997.53 997.28 997.79 998.50 998.29 999.67 1000.26 1000.86 1001.30 1001.74 1001.74 1004.03 1006.07
1016.23 1015.81 1015.39 1015.00 1014.61 1014.14 1013.67 1013.29 1012.88 1012.52 1012.19 1011.81 1011.28 1010.92 1010.66 1010.34 1008.45 1005.77 1004.32 1004.27 1004.51 1004.51 1004.04 1002.78 1001.97 1001.88 1001.48 1000.69 1001.08 1003.72 1001.38 997.95 997.54 997.55 997.42 998.20 998.12 999.22 999.43 1000.48 1001.37 1002.29 1003.02 1004.74 1005.84
1016.31 1015.87 1015.46 1014.95 1014.48 1014.06 1013.58 1013.14 1012.76 1012.40 1012.03 1011.62 1011.16 1010.76 1010.56 1010.08 1006.93 1003.22 1004.00 1004.21 1004.52 1004.45 1003.36 1002.45 1002.12 1001.41 1000.31 999.76 999.91 1002.22 998.33 997.15 997.55 997.77 997.35 997.63 997.96 998.67 998.59 999.33 1000.39 1001.97 1003.40 1005.00 1005.86
1016.42 1015.88 1015.35 1014.88 1014.41 1013.96 1013.47 1012.96 1012.54 1012.18 1011.79 1011.43 1011.02 1010.62 1010.26 1008.97 1004.64 1003.53 1004.06 1004.37 1004.53 1004.01 1002.62 1001.96 1001.73 1000.94 999.99 999.15 999.37 998.63 997.34 996.84 997.09 997.57 997.14 996.96 997.62 998.26 998.34 999.34 1000.03 1001.64 1003.24 1004.54 1005.42
1016.40 1015.82 1015.26 1014.76 1014.27 1013.81 1013.32 1012.78 1012.34 1011.96 1011.61 1011.22 1010.88 1010.56 1009.43 1006.45 1003.00 1003.51 1004.11 1004.32 1004.08 1003.49 1002.06 1001.55 1001.08 1000.42 999.29 998.60 998.53 997.47 997.07 996.79 996.92 997.29 997.05 997.47 997.57 997.98 998.46 999.49 1000.26 1001.81 1003.13 1004.00 1004.77
1016.32 1015.83 1015.27 1014.71 1014.18 1013.64 1013.14 1012.58 1012.14 1011.69 1011.34 1010.97 1010.65 1010.57 1008.45 1004.32 1002.36 1002.97 1003.35 1003.49 1002.73 1002.32 1001.52 1001.16 1000.21 1000.34 999.75 998.69 998.19 997.53 997.12 996.58 996.57 996.67 997.24 996.77 997.30 997.50 998.58 999.52 1000.69 1001.92 1002.78 1003.50 1004.10
1016.25 1015.70 1015.18 1014.62 1014.07 1013.46 1012.92 1012.37 1011.81 1011.36 1010.93 1010.64 1010.47 1009.78 1006.28 1002.89 1002.32 1002.35 1002.58 1002.40 1001.96 1001.49 1000.94 1001.21 1001.06 1000.33 999.33 998.30 997.80 997.59 997.13 996.36 996.07 996.18 996.32 996.40 996.79 996.98 998.49 999.38 1000.53 1001.46 1002.28 1002.99 1003.63
1016.24 1015.61 1015.03 1014.42 1013.83 1013.29 1012.70 1012.08 1011.39 1010.86 1010.34 1010.04 1010.18 1008.83 1004.20 1002.07 1001.98 1002.19 1002.15 1001.88 1001.86 1001.51 1001.21 1001.44 1001.12 1000.47 999.56 998.48 997.92 997.49 996.42 996.59 996.16 995.91 996.32 997.02 996.05 997.18 998.23 998.92 999.96 1000.81 1001.71 1002.48 1003.10
1016.34 1015.62 1014.86 1014.20 1013.61 1013.03 1012.29 1011.59 1010.83 1010.32 1009.88 1009.78 1009.26 1006.86 1002.80 1002.79 1002.09 1001.60 1001.67 1001.25 1001.49 1001.46 1001.53 1001.76 1001.00 999.77 998.76 997.97 996.95 996.84 999.78 998.08 996.15 995.84 995.76 997.55 995.83 996.65 997.56 998.04 999.15 1000.04 1000.91 1001.73 1002.49
1016.21 1015.52 1014.81 1014.09 1013.48 1012.86 1011.82 1010.94 1010.31 1010.09 1009.54 1008.50 1007.03 1005.33 1002.15 1000.98 1000.80 1000.96 1001.19 1000.69 1000.95 1001.12 1001.26 1001.09 1000.18 999.16 998.48 997.10 997.14 996.54 996.32 995.80 995.46 995.92 995.70 995.16 995.20 995.85 996.60 996.73 997.69 999.00 1000.02 1000.88 1001.51
1016.10 1015.45 1014.76 1013.98 1013.29 1012.82 1011.61 1009.38 1009.20 1007.99 1006.54 1003.96 1002.26 1001.63 1000.49 1000.30 1000.74 1000.64 1000.94 1000.82 1000.75 1000.84 1000.34 1000.26 999.67 998.34 997.29 997.99 1000.08 996.66 995.92 995.09 995.73 995.76 995.40 994.95 995.39 995.35 995.74 996.14 996.51 997.49 998.96 999.92 1000.56
1015.99 1015.30 1014.56 1013.73 1012.91 1012.45 1011.95 1007.69 1005.63 1005.54 1003.77 1002.28 1001.79 1000.85 1000.36 1000.25 1000.21 1000.17 1000.67 1000.55 1000.41 1000.00 999.81 1000.50 999.69 998.41 999.00 998.17 997.42 996.61 995.52 995.04 995.79 995.75 995.47 995.23 995.07 995.21 995.52 996.14 996.17 996.53 997.36 998.61 999.66
1015.80 1015.12 1014.36 1013.37 1012.43 1011.16 1008.43 1006.40 1005.67 1005.22 1003.19 1000.57 999.96 999.90 999.95 1000.39 999.36 999.27 1000.12 1000.02 999.68 999.51 999.01 999.58 998.94 998.48 998.93 998.11 997.05 995.87 995.17 995.10 995.35 995.41 995.28 994.89 994.53 994.81 995.37 995.79 995.94 996.24 996.74 997.48 998.28
1015.56 1014.98 1014.34 1013.01 1011.98 1008.39 1006.50 1005.68 1005.71 1005.36 1002.52 998.80 998.67 998.59 999.01 999.53 999.14 998.40 999.46 999.34 999.11 999.02 998.93 999.49 999.44 999.35 998.87 997.93 996.45 995.05 995.64 995.67 995.37 994.97 993.98 994.28 993.79 993.90 994.56 995.09 995.23 995.67 996.29 996.57 997.43
1015.29 1014.76 1014.29 1014.49 1011.53 1007.66 1006.03 1005.87 1005.52 1004.92 1000.50 997.50 997.69 997.78 997.90 998.43 997.70 998.33 998.61 998.71 998.30 998.74 999.05 998.60 998.82 999.48 998.88 997.66 996.78 996.42 996.19 995.88 995.40 994.77 993.70 993.62 993.66 993.72 994.64 994.79 995.43 996.31 996.99 997.24 997.50
1014.92 1014.55 1014.15 1011.47 1010.90 1007.45 1006.31 1005.83 1005.41 1003.27 998.55 997.19 997.43 997.86 997.51 997.91 997.39 997.26 998.14 998.50 998.32 998.07 998.34 998.26 998.46 998.45 998.49 998.01 997.76 997.11 996.82 996.18 995.48 994.68 993.31 992.88 993.62 992.75 993.71 995.11 995.96 996.74 997.07 997.43 997.57
1014.28 1013.77 1014.03 1011.95 1007.32 1006.56 1006.25 1005.48 1003.31 1000.19 997.40 996.32 996.54 996.67 996.76 996.69 996.94 996.60 997.41 997.69 997.57 997.68 997.17 997.91 998.05 998.41 998.19 998.14 998.12 997.83 996.53 994.92 994.25 993.32 992.16 992.90 994.02 993.30 994.14 995.63 996.58 996.85 997.28 997.58 997.46
1013.16 1012.42 1010.41 1009.82 1007.19 1007.33 1006.20 1004.46 1001.28 997.93 996.65 996.41 996.19 995.91 995.89 995.79 996.18 996.29 996.67 996.62 997.13 996.71 996.13 996.89 997.02 997.35 997.40 997.86 997.54 997.20 996.12 994.19 993.15 992.25 991.97 992.91 993.39 993.53 994.71 995.97 996.78 997.16 997.76 997.95 997.90
1012.04 1008.62 1007.91 1006.62 1007.60 1006.95 1005.34 1002.40 999.60 997.78 996.90 996.60 995.97 995.50 995.10 995.11 995.28 995.46 995.64 995.60 995.68 996.07 995.64 995.41 995.37 995.15 995.98 996.99 997.81 996.67 995.60 994.78 993.66 992.98 992.52 992.27 992.69 994.00 995.01 995.86 996.85 997.36 998.15 998.29 998.68
1011.57 1007.65 1005.14 1005.50 1006.35 1006.12 1004.26 1000.99 998.44 997.69 998.09 997.53 996.13 995.12 994.38 994.41 994.64 994.57 994.66 994.67 994.64 995.00 995.44 994.94 995.32 994.88 995.69 996.41 996.27 996.34 995.84 995.21 994.81 994.28 993.40 992.71 992.40 992.41 994.60 995.61 996.63 997.43 998.50 998.80 999.03
1010.83 1005.93 1004.74 1005.32 1005.84 1004.65 1001.99 999.96 998.64 998.02 998.48 997.67 996.38 995.67 994.84 993.90 994.03 993.99 993.88 994.11 994.21 994.14 994.54 995.01 994.76 994.63 995.03 995.84 995.70 996.07 995.90 995.21 994.42 993.73 992.94 992.47 991.88 991.45 993.56 994.94 996.49 997.16 998.58 999.16 999.57
1008.71 1004.76 1004.75 1004.90 1004.35 1002.50 1000.60 999.37 999.01 997.94 998.07 998.26 997.68 996.93 995.84 994.76 994.02 993.77 993.15 993.48 994.07 994.25 994.35 994.90 994.78 994.16 993.89 994.56 994.62 994.57 994.02 994.23 993.85 993.95 993.77 993.09 992.17 993.25 994.17 995.39 996.15 997.36 998.80 999.47 999.86
1008.16 1004.23 1004.26 1004.19 1002.09 1000.33 999.60 998.68 998.21 998.56 998.14 997.87 997.47 997.01 996.39 995.84 995.38 994.17 993.67 993.28 994.01 994.57 995.02 994.76 994.63 993.89 993.52 993.42 993.45 994.09 994.21 994.05 993.56 993.07 992.79 992.69 992.57 993.57 994.84 995.66 996.80 998.11 999.13 1000.27 1000.93
1008.79 1003.84 1002.96 1003.47 1001.81 1000.07 998.55 998.46 998.52 998.79 998.33 997.76 997.53 997.23 996.89 996.27 995.56 994.61 994.08 994.35 995.09 995.24 996.09 995.63 994.41 993.91 993.08 992.48 992.38 992.71 993.84 994.06 993.92 993.34 993.11 992.89 992.97 993.92 994.95 995.56 997.20 998.64 999.63 1000.72 1001.61
1007.84 1003.93 1003.29 1001.48 1000.94 1000.17 999.15 998.15 997.96 997.80 998.55 998.06 997.92 997.68 997.11 996.33 995.47 994.83 994.61 994.41 995.62 996.09 996.15 995.90 995.03 994.46 993.67 992.91 993.27 993.34 993.36 993.55 993.72 993.52 993.16 992.79 992.64 993.21 994.68 996.01 997.86 999.41 1000.29 1001.38 1002.29
1008.57 1006.82 1004.85 1002.85 1001.68 1000.66 999.47 999.03 998.26 997.67 997.77 997.89 997.97 997.22 996.66 996.44 995.74 994.71 994.53 994.15 994.56 995.64 995.86 995.47 995.07 994.72 993.87 993.86 993.54 993.94 993.90 993.99 994.13 993.94 993.99 993.75 993.46 993.77 994.36 995.34 997.51 999.42 1000.90 1001.79 1002.92
1010.23 1008.57 1007.29 1003.65 1001.93 1000.96 999.87 999.30 998.63 998.57 998.04 998.23 997.80 997.68 997.37 996.93 996.33 995.46 994.71 994.32 993.85 994.12 994.95 994.86 994.65 994.59 994.39 994.60 994.06 993.48 993.99 994.31 994.24 994.24 994.26 994.17 994.46 995.36 995.60 995.90 997.76 999.49 1000.94 1002.26 1003.41
Thickness
5754 5758 5762 5766 5770 5774 5779 5783 5788 5792 5796 5800 5804 5807 5813 5819 5830 5842 5852 5874 5881 5883 5882 5890 5888 5891 5887 5882 5887 5876 5830 5866 5874 5874 5874 5892 5885 5891 5893 5874 5878 5880 5880 5869 5862
5752 5756 5761 5765 5769 5774 5779 5783 5788 5792 5796 5799 5804 5808 5813 5819 5838 5853 5879 5881 5881 5883 5881 5880 5878 5884 5874 5881 5881 5816 5827 5876 5896 5896 5890 5891 5892 5886 5883 5873 5868 5869 5879 5872 5865
5751 5755 5759 5764 5769 5773 5778 5783 5787 5792 5796 5800 5804 5809 5813 5820 5840 5867 5881 5882 5881 5884 5890 5893 5890 5885 5876 5890 5888 5817 5879 5904 5898 5902 5910 5897 5894 5900 5890 5875 5881 5867 5867 5864 5860
5748 5754 5759 5764 5768 5773 5778 5783 5788 5793 5797 5800 5805 5809 5815 5827 5822 5872 5879 5880 5881 5888 5892 5888 5882 5872 5871 5872 5890 5877 5906 5908 5908 5907 5909 5905 5907 5892 5898 5891 5903 5891 5880 5869 5861
5748 5753 5759 5764 5768 5773 5778 5783 5788 5793 5797 5801 5805 5809 5823 5833 5853 5878 5878 5879 5884 5887 5885 5881 5875 5877 5871 5886 5891 5889 5904 5916 5916 5911 5913 5911 5899 5895 5896 5905 5908 5894 5882 5874 5870
5746 5751 5757 5762 5768 5773 5778 5784 5789 5794 5798 5802 5806 5808 5822 5822 5884 5882 5885 5883 5888 5888 5888 5889 5887 5892 5881 5886 5879 5904 5907 5916 5921 5917 5912 5910 5905 5908 5903 5910 5897 5889 5883 5881 5877
5745 5750 5755 5761 5767 5773 5778 5784 5790 5795 5800 5803 5806 5813 5829 5842 5882 5887 5887 5885 5895 5895 5884 5893 5895 5886 5895 5888 5911 5905 5891 5918 5923 5923 5917 5925 5898 5902 5910 5909 5893 5889 5888 5886 5884
5742 5748 5754 5760 5767 5772 5778 5785 5791 5797 5803 5806 5807 5817 5828 5879 5885 5881 5888 5886 5897 5901 5897 5900 5902 5891 5891 5908 5901 5893 5905 5880 5915 5923 5922 5907 5885 5907 5916 5907 5894 5894 5892 5888 5888
5739 5746 5753 5760 5766 5772 5779 5787 5794 5799 5804 5806 5812 5823 5829 5872 5863 5883 5889 5878 5887 5893 5897 5898 5896 5888 5898 5883 5885 5899 5810 5829 5898 5924 5920 5866 5893 5914 5922 5914 5900 5900 5897 5894 5892
5737 5744 5751 5758 5765 5771 5781 5790 5795 5799 5805 5813 5824 5816 5849 5850 5873 5882 5892 5894 5879 5880 5876 5877 5882 5876 5886 5891 5861 5886 5886 5902 5898 5908 5914 5913 5912 5921 5924 5925 5913 5907 5903 5899 5896
5736 5742 5748 5756 5764 5769 5781 5800 5800 5803 5815 5828 5841 5839 5855 5873 5882 5874 5885 5879 5879 5869 5851 5871 5857 5860 5892 5875 5831 5898 5897 5900 5900 5915 5911 5915 5909 5921 5928 5926 5922 5917 5908 5904 5903
5734 5741 5747 5755 5763 5768 5774 5802 5816 5818 5809 5843 5844 5850 5864 5870 5847 5865 5884 5857 5858 5846 5866 5850 5843 5880 5880 5889 5891 5897 5897 5900 5901 5913 5910 5908 5907 5922 5924 5919 5926 5924 5920 5913 5910
5733 5740 5746 5755 5764 5776 5798 5808 5825 5825 5807 5835 5852 5847 5852 5858 5851 5858 5871 5866 5856 5851 5862 5845 5864 5882 5874 5879 5883 5900 5894 5893 5880 5906 5915 5909 5901 5909 5920 5926 5929 5930 5931 5927 5920
5731 5737 5744 5756 5766 5796 5800 5818 5821 5822 5792 5829 5838 5849 5857 5857 5840 5884 5881 5869 5860 5849 5860 5851 5871 5863 5867 5870 5897 5896 5910 5901 5897 5892 5879 5920 5858 5907 5919 5916 5928 5927 5926 5929 5926
5729 5735 5740 5741 5765 5786 5803 5814 5818 5811 5770 5841 5844 5880 5868 5847 5863 5861 5890 5873 5852 5853 5858 5851 5860 5850 5853 5874 5898 5875 5905 5899 5900 5894 5906 5906 5890 5899 5914 5905 5909 5912 5916 5921 5924
5727 5732 5737 5763 5764 5791 5803 5809 5803 5773 5775 5826 5845 5836 5840 5846 5854 5870 5863 5878 5878 5861 5864 5863 5884 5876 5871 5885 5888 5897 5888 5893 5898 5897 5878 5909 5892 5904 5904 5897 5901 5908 5914 5917 5920
5726 5732 5734 5750 5784 5797 5801 5792 5768 5772 5835 5829 5829 5842 5840 5838 5842 5855 5845 5842 5836 5823 5835 5851 5855 5872 5882 5861 5880 5878 5874 5862 5861 5872 5879 5910 5881 5906 5914 5908 5903 5903 5907 5912 5919
5728 5737 5756 5762 5785 5786 5787 5773 5755 5813 5823 5842 5840 5843 5831 5847 5844 5848 5842 5837 5855 5858 5854 5827 5823 5862 5882 5864 5862 5868 5879 5872 5846 5867 5884 5905 5870 5894 5913 5914 5911 5909 5905 5907 5910
5730 5762 5766 5781 5775 5781 5773 5760 5783 5809 5827 5822 5835 5826 5832 5847 5849 5848 5845 5846 5861 5866 5844 5842 5847 5895 5890 5883 5870 5867 5864 5906 5883 5896 5883 5899 5910 5909 5910 5902 5900 5897 5893 5894 5896
5726 5757 5774 5782 5776 5772 5764 5768 5804 5823 5818 5820 5809 5834 5827 5839 5837 5845 5845 5866 5863 5878 5883 5871 5835 5882 5878 5883 5887 5872 5894 5862 5871 5830 5832 5876 5888 5893 5882 5885 5891 5888 5882 5886 5891
5724 5753 5771 5775 5770 5759 5759 5782 5801 5821 5815 5809 5815 5818 5831 5843 5847 5844 5850 5867 5876 5879 5887 5873 5864 5862 5874 5851 5852 5856 5853 5869 5884 5882 5857 5855 5881 5930 5900 5893 5884 5887 5882 5881 5881
5732 5741 5764 5767 5744 5763 5767 5790 5782 5808 5816 5807 5813 5816 5819 5836 5837 5844 5853 5863 5879 5879 5856 5871 5861 5847 5863 5881 5891 5884 5882 5877 5855 5846 5865 5870 5878 5916 5905 5898 5896 5884 5878 5879 5880
5723 5748 5760 5756 5741 5762 5778 5786 5795 5791 5797 5802 5803 5817 5825 5819 5810 5838 5851 5883 5875 5863 5853 5868 5848 5836 5849 5876 5890 5862 5874 5879 5887 5891 5865 5854 5872 5908 5895 5891 5887 5874 5872 5866 5863
5711 5732 5746 5744 5758 5760 5772 5771 5770 5790 5791 5802 5802 5812 5808 5809 5829 5825 5838 5851 5855 5858 5842 5858 5855 5844 5838 5864 5884 5865 5859 5867 5866 5852 5858 5865 5874 5878 5879 5879 5871 5864 5864 5857 5851
5712 5730 5736 5737 5744 5753 5764 5771 5767 5770 5783 5793 5787 5793 5798 5795 5811 5817 5834 5842 5841 5830 5841 5844 5824 5844 5860 5875 5864 5863 5863 5865 5853 5863 5850 5872 5879 5890 5872 5864 5853 5853 5850 5842 5836
5688 5695 5716 5728 5738 5741 5743 5751 5759 5773 5775 5772 5774 5793 5803 5792 5807 5812 5827 5836 5826 5834 5830 5844 5818 5835 5836 5852 5858 5839 5854 5855 5853 5858 5854 5861 5861 5892 5892 5881 5849 5845 5835 5829 5823
5674 5687 5687 5714 5726 5728 5738 5747 5755 5764 5772 5778 5777 5778 5778 5795 5814 5827 5837 5843 5851 5837 5824 5830 5828 5822 5805 5833 5840 5827 5839 5841 5847 5856 5853 5834 5856 5860 5860 5860 5840 5835 5828 5819 5813